EJU96UW LEPA-LSGG

Flight info

Callsign EJU96UW
Flight time 1h 15m
Altitude 34000
Route MERO9B MEROS N853 LUMAS MAXIR LUSOL BODRU OKTET IRMAR KINES KINE2N
Aircraft A320/M-SDE3FGHIRWY/LB1

Departure

Time 2026-05-07 17:52
Airport Palma de Mallorca Airport (LEPA)

Arrival

Time 2026-05-07 19:08
Airport Geneva International Airport (LSGG)
Time Latitude Longitude Altitude Speed Heading
2026-05-07 17:06 39.54851 2.73836 38 ft 0 kts 268°
2026-05-07 17:31 39.54852 2.73848 38 ft 3 kts 267°
2026-05-07 17:32 39.54853 2.73875 38 ft 3 kts 266°
2026-05-07 17:32 39.54854 2.73902 38 ft 3 kts 264°
2026-05-07 17:32 39.54857 2.73929 38 ft 3 kts 259°
2026-05-07 17:32 39.54862 2.73955 38 ft 3 kts 245°
2026-05-07 17:33 39.54871 2.73974 35 ft 3 kts 198°
2026-05-07 17:33 39.54878 2.73976 36 ft 0 kts 150°
2026-05-07 17:36 39.54853 2.73995 38 ft 6 kts 152°
2026-05-07 17:36 39.54817 2.73991 38 ft 7 kts 212°
2026-05-07 17:36 39.54785 2.73944 38 ft 6 kts 214°
2026-05-07 17:37 39.54755 2.73950 38 ft 5 kts 150°
2026-05-07 17:37 39.54708 2.73951 38 ft 7 kts 221°
2026-05-07 17:37 39.54674 2.73883 38 ft 15 kts 238°
2026-05-07 17:37 39.54623 2.73775 38 ft 13 kts 239°
2026-05-07 17:38 39.54580 2.73684 38 ft 11 kts 239°
2026-05-07 17:38 39.54536 2.73591 38 ft 14 kts 238°
2026-05-07 17:38 39.54488 2.73489 38 ft 14 kts 238°
2026-05-07 17:38 39.54435 2.73378 38 ft 14 kts 238°
2026-05-07 17:39 39.54392 2.73287 38 ft 9 kts 238°
2026-05-07 17:39 39.54363 2.73226 38 ft 7 kts 239°
2026-05-07 17:39 39.54332 2.73165 38 ft 7 kts 225°
2026-05-07 17:39 39.54294 2.73170 38 ft 6 kts 143°
2026-05-07 17:40 39.54270 2.73216 38 ft 5 kts 106°
2026-05-07 17:40 39.54269 2.73230 38 ft 0 kts 94°
2026-05-07 17:49 39.54268 2.73254 38 ft 8 kts 93°
2026-05-07 17:49 39.54268 2.73331 38 ft 9 kts 89°
2026-05-07 17:50 39.54264 2.73424 38 ft 11 kts 98°
2026-05-07 17:50 39.54277 2.73489 37 ft 0 kts 59°
2026-05-07 17:52 39.54322 2.73585 38 ft 40 kts 59°
2026-05-07 17:52 39.54593 2.74157 38 ft 107 kts 58°
2026-05-07 17:52 39.55083 2.75199 58 ft 156 kts 59°
2026-05-07 17:52 39.55627 2.76374 680 ft 152 kts 57°
2026-05-07 17:53 39.56166 2.77560 1372 ft 154 kts 59°
2026-05-07 17:53 39.56722 2.78790 1899 ft 168 kts 60°
2026-05-07 17:53 39.57353 2.80170 2255 ft 188 kts 59°
2026-05-07 17:53 39.58063 2.81718 2669 ft 207 kts 60°
2026-05-07 17:54 39.58792 2.83321 3395 ft 210 kts 60°
2026-05-07 17:54 39.59549 2.84979 3836 ft 216 kts 60°
2026-05-07 17:54 39.60316 2.86642 3948 ft 214 kts 60°
2026-05-07 17:54 39.61077 2.88293 3999 ft 213 kts 60°
2026-05-07 17:55 39.61833 2.89947 4094 ft 215 kts 60°
2026-05-07 17:55 39.62602 2.91673 4718 ft 227 kts 61°
2026-05-07 17:55 39.63410 2.93536 5231 ft 247 kts 62°
2026-05-07 17:55 39.64278 2.95558 5849 ft 260 kts 61°
2026-05-07 17:56 39.65169 2.97626 6687 ft 265 kts 62°
2026-05-07 17:56 39.66074 2.99724 7524 ft 268 kts 62°
2026-05-07 17:56 39.66996 3.01853 8368 ft 272 kts 63°
2026-05-07 17:56 39.67934 3.04019 9179 ft 277 kts 62°
2026-05-07 17:57 39.68885 3.06218 10007 ft 281 kts 63°
2026-05-07 17:57 39.69520 3.07688 10513 ft 283 kts 63°
2026-05-07 17:57 39.70842 3.10762 11117 ft 306 kts 63°
2026-05-07 17:57 39.71908 3.13249 11497 ft 322 kts 63°
2026-05-07 17:58 39.73016 3.15818 12143 ft 329 kts 63°
2026-05-07 17:58 39.74143 3.18433 12852 ft 334 kts 63°
2026-05-07 17:58 39.75283 3.21074 13572 ft 338 kts 63°
2026-05-07 17:58 39.76441 3.23757 14190 ft 343 kts 63°
2026-05-07 17:59 39.77692 3.26424 14665 ft 348 kts 56°
2026-05-07 17:59 39.79262 3.28854 15083 ft 354 kts 51°
2026-05-07 17:59 39.80884 3.31273 15327 ft 356 kts 51°
2026-05-07 17:59 39.82512 3.33707 15529 ft 358 kts 51°
2026-05-07 18:00 39.84144 3.36156 15649 ft 358 kts 51°
2026-05-07 18:00 39.85777 3.38607 15776 ft 359 kts 51°
2026-05-07 18:00 39.87415 3.41069 15910 ft 361 kts 51°
2026-05-07 18:00 39.89060 3.43540 15943 ft 361 kts 51°
2026-05-07 18:01 39.90683 3.45979 15963 ft 362 kts 51°
2026-05-07 18:01 39.92347 3.48478 16558 ft 366 kts 51°
2026-05-07 18:01 39.94285 3.50676 17131 ft 376 kts 33°
2026-05-07 18:01 39.96636 3.52240 17711 ft 382 kts 27°
2026-05-07 18:02 40.01482 3.55251 18866 ft 389 kts 27°
2026-05-07 18:02 40.03940 3.56771 19380 ft 393 kts 27°
2026-05-07 18:02 40.06420 3.58311 19906 ft 396 kts 27°
2026-05-07 18:03 40.08923 3.59866 20427 ft 400 kts 27°
2026-05-07 18:03 40.11448 3.61441 20939 ft 404 kts 27°
2026-05-07 18:03 40.13995 3.63037 21444 ft 408 kts 27°
2026-05-07 18:03 40.16572 3.64648 21957 ft 412 kts 27°
2026-05-07 18:04 40.19170 3.66272 22461 ft 416 kts 26°
2026-05-07 18:04 40.21796 3.67914 22978 ft 420 kts 26°
2026-05-07 18:04 40.24438 3.69572 23490 ft 423 kts 26°
2026-05-07 18:04 40.27104 3.71247 23909 ft 427 kts 26°
2026-05-07 18:05 40.29794 3.72936 24305 ft 430 kts 26°
2026-05-07 18:05 40.32505 3.74639 24692 ft 434 kts 26°
2026-05-07 18:05 40.35237 3.76360 25066 ft 437 kts 25°
2026-05-07 18:05 40.37955 3.78076 25430 ft 441 kts 25°
2026-05-07 18:06 40.40767 3.79852 25803 ft 444 kts 25°
2026-05-07 18:06 40.43560 3.81617 26159 ft 448 kts 25°
2026-05-07 18:06 40.46381 3.83401 26457 ft 452 kts 25°
2026-05-07 18:06 40.49189 3.85177 26788 ft 456 kts 25°
2026-05-07 18:07 40.52054 3.86991 27125 ft 459 kts 25°
2026-05-07 18:07 40.54940 3.88820 27460 ft 462 kts 25°
2026-05-07 18:07 40.57847 3.90667 27785 ft 465 kts 25°
2026-05-07 18:07 40.60769 3.92528 28110 ft 468 kts 25°
2026-05-07 18:08 40.63712 3.94404 28434 ft 472 kts 25°
2026-05-07 18:08 40.65713 3.95678 28646 ft 474 kts 25°
2026-05-07 18:08 40.69654 3.98191 29067 ft 477 kts 25°
2026-05-07 18:08 40.71675 3.99489 29265 ft 479 kts 25°
2026-05-07 18:09 40.75657 4.02065 29668 ft 483 kts 25°
2026-05-07 18:09 40.77692 4.03389 29846 ft 485 kts 25°
2026-05-07 18:09 40.80726 4.05367 30121 ft 488 kts 25°
2026-05-07 18:09 40.83777 4.07356 30383 ft 490 kts 25°
2026-05-07 18:10 40.86840 4.09349 30664 ft 491 kts 25°
2026-05-07 18:10 40.89909 4.11348 30907 ft 493 kts 25°
2026-05-07 18:10 40.93000 4.13357 31143 ft 495 kts 25°
2026-05-07 18:10 40.96055 4.15343 31373 ft 497 kts 25°
2026-05-07 18:11 40.99154 4.17361 31671 ft 497 kts 25°
2026-05-07 18:11 41.02256 4.19382 31978 ft 496 kts 25°
2026-05-07 18:11 41.05365 4.21410 32159 ft 500 kts 25°
2026-05-07 18:11 41.08486 4.23451 32433 ft 501 kts 25°
2026-05-07 18:12 41.11612 4.25499 32726 ft 501 kts 25°
2026-05-07 18:12 41.14739 4.27550 33022 ft 501 kts 25°
2026-05-07 18:12 41.17865 4.29605 33298 ft 501 kts 25°
2026-05-07 18:12 41.20989 4.31667 33571 ft 502 kts 26°
2026-05-07 18:13 41.24112 4.33733 33701 ft 502 kts 26°
2026-05-07 18:13 41.27233 4.35805 33881 ft 501 kts 26°
2026-05-07 18:13 41.30342 4.37876 33966 ft 497 kts 26°
2026-05-07 18:14 41.36460 4.41955 33970 ft 489 kts 26°
2026-05-07 18:14 41.42543 4.46002 33975 ft 488 kts 26°
2026-05-07 18:15 41.48616 4.50057 33993 ft 488 kts 25°
2026-05-07 18:15 41.54672 4.54118 33974 ft 487 kts 25°
2026-05-07 18:16 41.60679 4.58165 33940 ft 487 kts 26°
2026-05-07 18:16 41.66733 4.62229 33956 ft 487 kts 26°
2026-05-07 18:17 41.72806 4.66317 33984 ft 493 kts 26°
2026-05-07 18:17 41.78896 4.70838 33982 ft 508 kts 30°
2026-05-07 18:18 41.84977 4.75869 33981 ft 517 kts 32°
2026-05-07 18:18 41.91104 4.80983 33982 ft 519 kts 31°
2026-05-07 18:19 41.97286 4.85999 33978 ft 519 kts 30°
2026-05-07 18:19 42.03494 4.90967 33968 ft 519 kts 30°
2026-05-07 18:20 42.09686 4.95970 33956 ft 519 kts 30°
2026-05-07 18:20 42.15865 5.01000 33953 ft 520 kts 30°
2026-05-07 18:21 42.22057 5.06049 33957 ft 520 kts 30°
2026-05-07 18:21 42.28253 5.11114 33964 ft 521 kts 30°
2026-05-07 18:22 42.34448 5.16185 33982 ft 521 kts 30°
2026-05-07 18:22 42.40642 5.21259 33982 ft 520 kts 30°
2026-05-07 18:23 42.46831 5.26349 33993 ft 520 kts 30°
2026-05-07 18:23 42.53010 5.31433 34003 ft 519 kts 29°
2026-05-07 18:24 42.59178 5.36532 33961 ft 519 kts 30°
2026-05-07 18:24 42.65351 5.41651 33958 ft 520 kts 30°
2026-05-07 18:25 42.71535 5.46783 33959 ft 521 kts 30°
2026-05-07 18:25 42.77723 5.51931 33969 ft 521 kts 30°
2026-05-07 18:26 42.83912 5.57095 33974 ft 522 kts 30°
2026-05-07 18:26 42.90099 5.62262 33996 ft 521 kts 29°
2026-05-07 18:27 42.96272 5.67442 33992 ft 520 kts 29°
2026-05-07 18:27 43.02433 5.72619 33978 ft 520 kts 29°
2026-05-07 18:28 43.08600 5.77807 33972 ft 521 kts 29°
2026-05-07 18:28 43.14717 5.82969 33992 ft 520 kts 29°
2026-05-07 18:29 43.20862 5.88168 33992 ft 519 kts 29°
2026-05-07 18:29 43.26998 5.93367 33991 ft 518 kts 29°
2026-05-07 18:30 43.33115 5.98565 34004 ft 516 kts 28°
2026-05-07 18:30 43.39488 6.02900 33984 ft 506 kts 13°
2026-05-07 18:31 43.46279 6.04748 33985 ft 492 kts 358°
2026-05-07 18:31 43.53090 6.05423 34000 ft 490 kts 357°
2026-05-07 18:32 43.59879 6.06102 33993 ft 488 kts 357°
2026-05-07 18:32 43.66643 6.06782 33991 ft 487 kts 357°
2026-05-07 18:33 43.73394 6.07488 33994 ft 488 kts 359°
2026-05-07 18:33 43.80042 6.09878 33972 ft 502 kts 18°
2026-05-07 18:34 43.86360 6.14100 33979 ft 504 kts 21°
2026-05-07 18:34 43.92610 6.18367 33992 ft 503 kts 20°
2026-05-07 18:35 43.98891 6.22659 33988 ft 503 kts 20°
2026-05-07 18:35 44.05164 6.26964 33989 ft 502 kts 20°
2026-05-07 18:36 44.11416 6.31269 34005 ft 501 kts 20°
2026-05-07 18:36 44.17664 6.35574 33990 ft 501 kts 20°
2026-05-07 18:37 44.23911 6.39878 33993 ft 501 kts 20°
2026-05-07 18:37 44.30063 6.44137 33976 ft 489 kts 21°
2026-05-07 18:38 44.36261 6.48429 33980 ft 497 kts 21°
2026-05-07 18:38 44.42464 6.52728 33982 ft 498 kts 21°
2026-05-07 18:39 44.48644 6.57039 33983 ft 494 kts 22°
2026-05-07 18:39 44.54794 6.61343 33981 ft 494 kts 21°
2026-05-07 18:40 44.60943 6.65656 33984 ft 494 kts 22°
2026-05-07 18:40 44.67048 6.69931 33990 ft 494 kts 21°
2026-05-07 18:41 44.73197 6.74244 33982 ft 494 kts 21°
2026-05-07 18:41 44.79520 6.77713 33994 ft 483 kts
2026-05-07 18:42 44.86085 6.78652 33982 ft 468 kts 352°
2026-05-07 18:42 44.92586 6.78215 33952 ft 466 kts 351°
2026-05-07 18:42 44.95790 6.78005 33669 ft 456 kts 352°
2026-05-07 18:43 44.98921 6.77808 33394 ft 444 kts 351°
2026-05-07 18:43 45.01974 6.77620 33133 ft 435 kts 352°
2026-05-07 18:43 45.04978 6.77430 32660 ft 430 kts 351°
2026-05-07 18:43 45.07956 6.77232 32123 ft 427 kts 352°
2026-05-07 18:44 45.10913 6.77028 31614 ft 424 kts 352°
2026-05-07 18:44 45.13811 6.76826 31094 ft 422 kts 352°
2026-05-07 18:44 45.16737 6.76626 30586 ft 419 kts 352°
2026-05-07 18:44 45.19639 6.76434 30108 ft 417 kts 352°
2026-05-07 18:45 45.22527 6.76242 29552 ft 414 kts 352°
2026-05-07 18:45 45.25382 6.76053 29083 ft 409 kts 352°
2026-05-07 18:45 45.28209 6.75868 28620 ft 404 kts 352°
2026-05-07 18:45 45.31002 6.75683 28158 ft 399 kts 353°
2026-05-07 18:46 45.33748 6.75367 27712 ft 392 kts 346°
2026-05-07 18:46 45.36405 6.74658 27293 ft 386 kts 344°
2026-05-07 18:46 45.39031 6.73941 26874 ft 383 kts 345°
2026-05-07 18:46 45.41640 6.73228 26442 ft 380 kts 345°
2026-05-07 18:47 45.44228 6.72522 26039 ft 378 kts 345°
2026-05-07 18:47 45.46798 6.71822 25585 ft 375 kts 345°
2026-05-07 18:47 45.49356 6.71126 25154 ft 373 kts 345°
2026-05-07 18:47 45.51901 6.70437 24697 ft 371 kts 345°
2026-05-07 18:48 45.54429 6.69754 24363 ft 368 kts 346°
2026-05-07 18:48 45.56949 6.69091 24065 ft 367 kts 346°
2026-05-07 18:48 45.59447 6.68451 23700 ft 363 kts 346°
2026-05-07 18:48 45.61923 6.67824 23280 ft 360 kts 346°
2026-05-07 18:49 45.64374 6.67198 22804 ft 357 kts 346°
2026-05-07 18:49 45.66813 6.66572 22342 ft 355 kts 346°
2026-05-07 18:49 45.69231 6.65951 21922 ft 352 kts 347°
2026-05-07 18:49 45.71629 6.65334 21503 ft 349 kts 346°
2026-05-07 18:50 45.74010 6.64714 21074 ft 346 kts 346°
2026-05-07 18:50 45.76372 6.64091 20646 ft 344 kts 346°
2026-05-07 18:50 45.78721 6.63458 20241 ft 342 kts 346°
2026-05-07 18:50 45.81051 6.62825 19870 ft 340 kts 346°
2026-05-07 18:51 45.83362 6.62193 19476 ft 337 kts 346°
2026-05-07 18:51 45.85661 6.61562 19077 ft 335 kts 346°
2026-05-07 18:51 45.87947 6.60935 18678 ft 333 kts 346°
2026-05-07 18:51 45.90220 6.60316 18407 ft 333 kts 346°
2026-05-07 18:52 45.92492 6.59699 18152 ft 332 kts 346°
2026-05-07 18:52 45.94749 6.59085 17745 ft 327 kts 346°
2026-05-07 18:52 45.96979 6.58481 16980 ft 326 kts 346°
2026-05-07 18:52 45.99207 6.57875 16411 ft 326 kts 346°
2026-05-07 18:53 46.01426 6.57269 16066 ft 323 kts 345°
2026-05-07 18:53 46.03537 6.56279 15723 ft 317 kts 331°
2026-05-07 18:53 46.05399 6.54634 15370 ft 312 kts 319°
2026-05-07 18:53 46.06930 6.52456 15037 ft 308 kts 306°
2026-05-07 18:54 46.08154 6.49935 14796 ft 308 kts 302°
2026-05-07 18:54 46.09360 6.47382 14552 ft 307 kts 302°
2026-05-07 18:54 46.10561 6.44842 14312 ft 307 kts 302°
2026-05-07 18:54 46.11754 6.42319 14061 ft 303 kts 302°
2026-05-07 18:55 46.12940 6.39810 13697 ft 303 kts 302°
2026-05-07 18:55 46.14123 6.37307 13311 ft 301 kts 302°
2026-05-07 18:55 46.15282 6.34849 12939 ft 300 kts 302°
2026-05-07 18:55 46.16456 6.32355 12673 ft 302 kts 302°
2026-05-07 18:56 46.17590 6.29819 12394 ft 300 kts 294°
2026-05-07 18:56 46.18159 6.26998 12121 ft 290 kts 272°
2026-05-07 18:56 46.17982 6.24150 11871 ft 282 kts 252°
2026-05-07 18:56 46.17128 6.21629 11623 ft 281 kts 232°
2026-05-07 18:57 46.15804 6.19556 11377 ft 281 kts 225°
2026-05-07 18:57 46.14439 6.17543 11141 ft 280 kts 225°
2026-05-07 18:57 46.13080 6.15536 10888 ft 279 kts 225°
2026-05-07 18:57 46.11728 6.13537 10643 ft 278 kts 225°
2026-05-07 18:58 46.10836 6.12219 10480 ft 277 kts 225°
2026-05-07 18:58 46.09493 6.10236 10234 ft 276 kts 225°
2026-05-07 18:58 46.08152 6.08274 9976 ft 274 kts 225°
2026-05-07 18:58 46.06809 6.06329 9739 ft 273 kts 224°
2026-05-07 18:59 46.05471 6.04397 9498 ft 272 kts 224°
2026-05-07 18:59 46.04134 6.02471 9194 ft 271 kts 224°
2026-05-07 18:59 46.02801 6.00555 8767 ft 271 kts 224°
2026-05-07 18:59 46.01471 5.98646 8427 ft 268 kts 224°
2026-05-07 19:00 46.00168 5.96773 8178 ft 261 kts 224°
2026-05-07 19:00 45.98910 5.94969 8050 ft 250 kts 224°
2026-05-07 19:00 45.97847 5.93076 7898 ft 242 kts 244°
2026-05-07 19:00 45.97524 5.90732 7628 ft 243 kts 274°
2026-05-07 19:01 45.98085 5.88462 7270 ft 245 kts 304°
2026-05-07 19:01 45.99190 5.86589 6907 ft 246 kts 312°
2026-05-07 19:01 46.00379 5.84816 6586 ft 245 kts 316°
2026-05-07 19:01 46.01832 5.83627 6307 ft 241 kts 346°
2026-05-07 19:02 46.03480 5.83432 6076 ft 236 kts
2026-05-07 19:02 46.05018 5.84078 5964 ft 225 kts 29°
2026-05-07 19:02 46.06268 5.85304 5880 ft 214 kts 46°
2026-05-07 19:02 46.07305 5.86799 5691 ft 209 kts 48°
2026-05-07 19:03 46.08321 5.88288 5409 ft 208 kts 47°
2026-05-07 19:03 46.09338 5.89762 5170 ft 207 kts 47°
2026-05-07 19:03 46.10347 5.91232 4897 ft 205 kts 47°
2026-05-07 19:03 46.11338 5.92676 4667 ft 199 kts 46°
2026-05-07 19:04 46.12306 5.94084 4322 ft 197 kts 46°
2026-05-07 19:04 46.13254 5.95462 4084 ft 190 kts 46°
2026-05-07 19:04 46.14153 5.96783 3845 ft 184 kts 46°
2026-05-07 19:04 46.15027 5.98060 3587 ft 174 kts 45°
2026-05-07 19:05 46.15868 5.99287 3369 ft 171 kts 45°
2026-05-07 19:05 46.16703 6.00505 3169 ft 170 kts 45°
2026-05-07 19:05 46.17517 6.01693 2955 ft 161 kts 45°
2026-05-07 19:05 46.18290 6.02821 2705 ft 155 kts 45°
2026-05-07 19:06 46.19023 6.03890 2495 ft 146 kts 45°
2026-05-07 19:06 46.20443 6.05974 2085 ft 144 kts 45°
2026-05-07 19:06 46.21143 6.06997 1916 ft 143 kts 45°
2026-05-07 19:07 46.21847 6.08023 1735 ft 144 kts 45°
2026-05-07 19:07 46.22551 6.09056 1535 ft 145 kts 45°
2026-05-07 19:07 46.23249 6.10083 1408 ft 135 kts 45°
2026-05-07 19:07 46.23803 6.10891 1379 ft 89 kts 45°
2026-05-07 19:08 46.24121 6.11357 1374 ft 45 kts 45°
2026-05-07 19:08 46.24265 6.11596 1373 ft 29 kts 59°
2026-05-07 19:08 46.24337 6.11831 1366 ft 15 kts 78°
2026-05-07 19:08 46.24337 6.11939 1365 ft 11 kts 119°
2026-05-07 19:09 46.24273 6.11915 1362 ft 11 kts 225°
2026-05-07 19:09 46.24214 6.11827 1363 ft 14 kts 225°
2026-05-07 19:09 46.24156 6.11740 1365 ft 12 kts 225°
2026-05-07 19:09 46.24081 6.11631 1368 ft 16 kts 225°
2026-05-07 19:10 46.24013 6.11531 1371 ft 12 kts 225°
2026-05-07 19:10 46.23951 6.11441 1374 ft 14 kts 225°
2026-05-07 19:10 46.23878 6.11333 1375 ft 16 kts 225°
2026-05-07 19:10 46.23809 6.11232 1377 ft 13 kts 225°
2026-05-07 19:11 46.23752 6.11149 1382 ft 12 kts 225°
2026-05-07 19:11 46.23678 6.11040 1389 ft 14 kts 225°
2026-05-07 19:11 46.23612 6.10944 1389 ft 13 kts 226°
2026-05-07 19:11 46.23545 6.10845 1389 ft 14 kts 224°
2026-05-07 19:12 46.23473 6.10739 1391 ft 16 kts 226°
2026-05-07 19:12 46.23392 6.10628 1398 ft 17 kts 217°
2026-05-07 19:12 46.23307 6.10507 1401 ft 18 kts 225°
2026-05-07 19:12 46.23226 6.10388 1398 ft 13 kts 225°
2026-05-07 19:13 46.23167 6.10348 1393 ft 10 kts 155°
2026-05-07 19:13 46.23113 6.10423 1397 ft 12 kts 135°
2026-05-07 19:13 46.23074 6.10479 1393 ft 7 kts 136°
2026-05-07 19:13 46.23030 6.10498 1398 ft 6 kts 150°
2026-05-07 19:14 46.23013 6.10521 1397 ft 2 kts 136°
2026-05-07 19:14 46.23006 6.10531 1398 ft 1 kts 136°